Weather History for Orlando International, FL

Change the Weather History Date:

Saturday, May 18, 2013

  Actual Average Record
Temperature  
Mean Temperature 80 °F 78 °F  
Max Temperature 93 °F 89 °F 97 °F (1930)
Min Temperature 66 °F 67 °F 51 °F (1917)
Degree Days  
Heating Degree Days 0 0  
Month to date heating degree days 0 0  
Since 1 July heating degree days 461 570  
Cooling Degree Days 15 13  
Month to date cooling degree days 166 198  
Year to date cooling degree days 702 619  
Growing Degree Days 30 (Base 50)    
Moisture  
Dew Point 67 °F    
Average Humidity 63    
Maximum Humidity 93    
Minimum Humidity 32    
Precipitation  
Precipitation 0.00 in 0.10 in 1.74 in (1943)
Month to date precipitation 2.06 1.48  
Year to date precipitation 7.88 12.66  
Sea Level Pressure  
Sea Level Pressure 30.09 in    
Wind  
Wind Speed 6 mph (ESE)    
Max Wind Speed 18 mph    
Max Gust Speed 29 mph    
Visibility 10 miles    
Events      
T = Trace of Precipitation, MM = Missing Value Source: NWS Daily Summary

Daily Weather History Graph

Daily Weather History Graph

Search for Another Location

Airport:

Trip Planner

Search our weather history database for the weather conditions in past years. The results will help you decide how hot, cold, wet, or windy it might be!

Date:

Astronomy

May. 18, 2013 Rise Set
Actual Time 6:33 AM EDT 8:10 PM EDT
Civil Twilight 6:07 AM EDT 8:36 PM EDT
Nautical Twilight 5:36 AM EDT 9:07 PM EDT
Astronomical Twilight 5:03 AM EDT 9:40 PM EDT
Moon 1:45 PM EDT (5/18) 1:49 AM EDT (5/18)
Length of Visible Light 14h 29m
Length of Day
13h 37m
First Quarter, 55% of the Moon is Illuminated
May 18
First Quarter
May 25
Full
May 31
Last Quarter
Jun 8
New
Jun 16
First Quarter

Hourly Weather History & Observations

Time (EDT) Temp. Heat Index Dew Point Humidity Pressure Visibility Wind Dir Wind Speed Gust Speed Precip Events Conditions
12:53 AM 70.0 °F - 66.0 °F 87% 30.12 in 10.0 mi ESE 4.6 mph - N/A   Clear
1:53 AM 70.0 °F - 66.9 °F 90% 30.10 in 10.0 mi Calm Calm - N/A   Clear
2:53 AM 69.1 °F - 66.9 °F 93% 30.09 in 10.0 mi Calm Calm - N/A   Clear
3:53 AM 68.0 °F - 66.0 °F 93% 30.09 in 10.0 mi Calm Calm - N/A   Clear
4:53 AM 69.1 °F - 66.0 °F 90% 30.09 in 10.0 mi Calm Calm - N/A   Clear
5:53 AM 68.0 °F - 66.0 °F 93% 30.09 in 10.0 mi Calm Calm - N/A   Clear
6:53 AM 68.0 °F - 66.9 °F 96% 30.10 in 9.0 mi East 4.6 mph - N/A   Clear
7:53 AM 71.1 °F - 69.1 °F 93% 30.12 in 10.0 mi East 5.8 mph - N/A   Clear
8:53 AM 75.9 °F - 69.1 °F 79% 30.13 in 10.0 mi SE 6.9 mph - N/A   Clear
9:53 AM 79.0 °F - 70.0 °F 74% 30.13 in 10.0 mi Variable 3.5 mph - N/A   Scattered Clouds
10:53 AM 80.1 °F 82.7 °F 68.0 °F 67% 30.13 in 10.0 mi Calm Calm - N/A   Scattered Clouds
11:53 AM 86.0 °F 88.2 °F 66.0 °F 51% 30.12 in 10.0 mi Variable 3.5 mph - N/A   Scattered Clouds
12:53 PM 86.0 °F 86.8 °F 63.0 °F 46% 30.09 in 10.0 mi Calm Calm - N/A   Partly Cloudy
1:53 PM 89.1 °F 90.0 °F 63.0 °F 42% 30.08 in 10.0 mi ESE 5.8 mph - N/A   Partly Cloudy
2:53 PM 91.9 °F 92.5 °F 62.1 °F 37% 30.06 in 10.0 mi Variable 4.6 mph - N/A   Partly Cloudy
3:53 PM 91.9 °F 90.8 °F 57.9 °F 32% 30.04 in 10.0 mi ESE 5.8 mph - N/A   Partly Cloudy
4:53 PM 91.0 °F 90.2 °F 59.0 °F 34% 30.03 in 10.0 mi East 10.4 mph - N/A   Partly Cloudy
5:53 PM 86.0 °F 90.1 °F 69.1 °F 57% 30.03 in 10.0 mi East 15.0 mph - N/A   Partly Cloudy
6:53 PM 82.9 °F 86.5 °F 69.1 °F 63% 30.04 in 10.0 mi East 16.1 mph - N/A   Partly Cloudy
7:53 PM 80.1 °F 83.2 °F 70.0 °F 71% 30.05 in 10.0 mi East 12.7 mph - N/A   Partly Cloudy
8:53 PM 78.1 °F - 70.0 °F 76% 30.07 in 10.0 mi ESE 10.4 mph - N/A   Partly Cloudy
9:53 PM 75.9 °F - 70.0 °F 82% 30.07 in 10.0 mi SE 10.4 mph - N/A   Partly Cloudy
10:53 PM 75.9 °F - 71.1 °F 85% 30.10 in 10.0 mi SE 6.9 mph - N/A   Scattered Clouds
11:53 PM 75.0 °F - 71.1 °F 87% 30.10 in 10.0 mi SE 8.1 mph - N/A   Mostly Cloudy